GalileoSat-6

operational
NORAD ID: 40129 Int'l Des: 2014-050 Owner: GSAEU Country: I-EU Constellation: Galileo
MEOELLIPTICAL

GalileoSat-6について

説明を読み込み中...

リアルタイム位置

3D地球を読み込み中...

次回通過

高度履歴

Altitude vs Time

uPlot chart will show altitude changes over time

軌道要素

1 40129U 14050B 26070.57744300 .00000009 00000-0 00000+0 0 9999
2 40129 48.9971 276.5149 1659655 176.3418 185.0557 1.85520847 78676
Epoch: Mar 11, 2026 • Age: 112 hours

現在のステータス

高度 18839.3 km
速度 4.17 km/s
衛星直下点 -39.78°S, 84.23°E
打ち上げ日 Aug 22, 2014
運用期間 11.5 years
タイプ navigation

技術仕様

分類 Payload
質量 733.00 kg
乾燥質量 700.00 kg
総質量 733.00 kg
長さ 2.70 m
直径 1.60 m
スパン 14.50 m
形状 Box+2 pan
製造者 OHB
バスタイプ GalileoSat
フェーズステータス In Orbit
所有者/国 GSAEU/I-EU

大規模コンステレーション

Loading constellations...